Location: SBMNH
(34.4407°N, 119.7157°W)
Time: 21:47:52
(UTC-07:00)

X-37B - Pass Details

Date: 19 August 2022
Orbit: 329 x 342 km, 45.0° (Epoch: 29 September)

Event Time Altitude Azimuth Distance (km) Brightness Sun altitude
Rises 21:07:21 0° 235° (SW) 2,075 4.6 -17.2°
Reaches altitude 10° 21:09:20 10° 234° (SW) 1,245 3.4 -17.6°
Enters shadow 21:11:50 68° 218° (SW) 356 0.3 -18.0°
